Location: Praha
(50.0830°N, 14.4670°E)
Time: 14:08:36
(UTC+02:00)

ISS - Pass Details

Date: 20 September 2021
Orbit: 419 x 423 km, 51.6° (Epoch: 21 September)

Event Time Altitude Azimuth Distance (km) Brightness Sun altitude
Rises 20:53:58 0° 252° (WSW) 2,361 0.8 -17.9°
Reaches altitude 10° 20:56:04 10° 252° (WSW) 1,499 -0.3 -18.2°
Maximum altitude 20:59:26 87° 161° (SSE) 425 -3.9 -18.7°
Enters shadow 20:59:51 66° 79° (E) 462 -3.9 -18.7°
